Theta_e
303 303 303 304 304 304 304 305 305 305 306 306 306 306 307 307 308 310 313 320 324 324 323 322 323 324 322 319 316 315 316 317 319 323 329 328 321 324 325 326 327 324 323 323 328 331 334 337 339 340 339 341 341 342 341 340 338 338 342 340 330 334 340 341 345 347 346 344 344 343 342 343 343 342 343 344 345 343 343 343 345 348 348 348 351 353 352 352
303 303 303 303 304 304 304 304 305 305 305 306 306 306 306 307 308 309 313 321 325 323 322 323 323 322 319 316 316 317 318 321 325 327 329 322 321 324 324 326 325 323 323 323 329 334 334 335 338 338 338 341 341 341 340 339 337 338 342 338 332 340 343 342 342 343 345 344 345 342 342 346 346 346 346 347 347 345 347 349 349 349 349 349 350 352 352 351
302 303 303 303 304 304 304 305 305 305 305 306 306 306 306 307 307 308 313 322 324 321 321 323 321 318 316 315 316 318 322 328 333 333 327 321 321 321 324 327 325 323 323 323 326 332 332 334 336 334 336 340 339 338 338 337 337 337 337 336 335 340 342 341 342 342 343 343 344 343 344 348 347 347 349 348 348 348 350 350 351 351 351 350 350 351 352 352
302 303 303 303 304 304 304 304 304 305 305 306 306 306 306 306 307 307 314 324 323 320 322 322 319 316 315 315 316 320 327 333 334 332 328 327 323 319 322 327 326 324 324 322 326 330 331 333 333 333 335 338 338 335 334 336 337 336 336 337 336 338 340 341 342 342 343 343 343 342 345 347 346 346 348 348 350 350 350 349 350 351 350 351 350 351 353 353
302 303 303 303 304 304 304 304 305 305 305 306 306 306 306 306 307 307 315 324 320 319 322 319 317 316 315 317 318 323 331 331 328 332 331 331 326 320 321 324 326 323 321 322 327 331 330 333 334 333 334 337 338 335 334 334 333 335 337 337 338 338 339 340 342 342 343 342 343 343 345 346 344 345 346 350 355 352 348 348 349 349 349 350 350 351 352 352
303 303 303 303 304 304 304 304 305 305 305 305 305 306 306 306 307 306 314 322 319 318 321 317 317 315 314 318 320 324 330 326 327 331 326 330 327 323 322 322 324 321 320 325 330 332 331 335 335 332 333 336 338 335 335 333 332 337 338 337 339 338 338 339 339 340 341 341 343 344 345 346 346 347 347 351 356 351 346 347 347 348 348 348 349 350 350 351
302 303 303 303 304 304 304 304 305 305 305 305 305 306 306 306 307 306 311 320 318 317 319 316 316 316 313 319 324 328 331 326 325 324 324 328 326 326 325 323 324 320 323 330 331 331 332 336 334 331 332 334 338 336 334 332 333 336 337 337 338 338 338 337 339 339 341 343 344 345 346 347 349 350 348 350 352 348 346 346 346 347 347 347 349 349 348 349
302 303 303 303 303 304 304 304 304 305 305 305 305 306 306 306 307 306 309 319 318 316 318 315 315 316 314 320 328 330 329 327 323 324 327 326 325 326 325 325 322 320 327 333 332 331 333 336 333 330 331 333 336 335 333 332 334 336 337 337 337 338 338 337 338 338 340 342 343 345 346 348 349 351 351 350 349 347 347 346 346 346 345 346 347 348 351 352
302 302 303 303 304 304 304 304 304 305 305 305 306 305 306 306 307 306 309 319 318 315 316 314 315 315 314 321 328 325 325 326 322 327 328 325 325 324 325 324 320 321 328 331 332 332 333 334 331 329 330 333 335 333 332 333 335 337 337 338 337 337 337 337 340 340 341 342 343 344 347 348 347 349 351 349 348 346 346 345 345 345 345 346 346 349 354 355
302 302 303 303 304 304 304 304 304 305 305 305 305 306 306 306 307 306 310 319 318 315 316 313 313 313 316 325 328 321 326 330 327 330 328 324 323 322 323 322 321 324 327 328 330 331 332 332 331 329 331 333 333 332 331 332 335 336 337 338 338 338 337 337 340 341 342 341 342 344 345 346 346 348 351 348 346 346 345 346 345 345 346 346 346 349 352 351
302 302 303 303 304 303 304 304 304 305 305 305 305 306 306 306 308 306 310 320 319 315 315 313 312 312 318 327 326 322 327 331 331 330 327 325 323 321 321 322 324 324 325 326 328 330 331 331 332 330 332 333 331 330 331 333 336 336 337 338 338 339 338 337 339 340 341 341 341 342 343 345 346 348 349 347 346 346 345 346 345 346 349 348 348 351 354 351
302 302 303 303 303 303 304 304 304 305 305 305 305 306 307 306 307 306 312 320 319 315 314 313 311 315 323 329 326 324 322 328 332 330 329 325 323 320 319 324 326 324 325 326 326 329 329 331 332 329 330 331 331 330 330 335 336 335 337 337 338 340 340 337 337 338 340 341 341 342 342 344 348 348 348 346 346 346 345 346 346 347 350 351 350 353 358 353
302 302 303 302 303 303 304 304 304 305 305 306 306 306 307 307 307 307 314 321 318 315 315 314 313 319 329 333 328 322 318 324 328 328 329 325 324 322 320 326 327 324 325 326 327 328 329 331 330 329 331 331 331 331 332 335 335 336 337 336 337 337 338 339 338 338 340 341 342 343 337 340 348 347 346 346 346 346 346 347 347 347 350 352 352 354 359 353
302 302 302 303 303 303 304 304 304 305 305 306 306 307 307 307 307 308 316 321 319 316 316 316 317 324 334 336 327 324 322 324 324 326 328 325 324 323 324 326 327 326 326 327 327 328 329 329 329 330 332 332 332 331 332 334 336 338 335 335 339 331 331 341 340 338 340 341 341 342 334 337 348 347 346 347 346 345 347 348 348 349 351 352 352 354 358 354
302 302 302 303 303 303 304 304 304 305 305 306 306 308 307 307 308 310 317 321 320 317 315 318 321 327 336 335 330 330 329 329 328 328 329 328 324 323 325 326 326 328 327 328 327 328 328 328 330 332 332 333 331 331 332 336 337 338 330 326 335 330 331 342 340 338 341 340 341 341 334 339 347 347 347 347 347 346 348 349 349 349 351 351 351 353 355 354
302 302 302 303 303 303 304 304 304 305 305 306 306 308 308 308 310 312 319 322 320 317 317 323 325 326 334 335 332 332 331 331 331 330 331 331 326 323 324 324 326 327 326 327 326 327 327 327 330 332 333 332 331 330 331 331 329 336 333 323 328 330 331 338 336 337 341 340 342 341 339 343 346 346 345 346 347 347 349 349 349 350 350 351 351 352 352 353
302 302 302 303 303 303 304 304 304 305 305 306 307 309 309 309 312 317 322 322 319 317 318 325 328 327 333 334 332 333 330 329 328 329 331 330 328 325 323 324 324 326 326 327 326 327 327 326 329 333 334 331 332 330 325 318 318 328 334 328 329 332 331 332 335 337 341 343 343 342 343 345 345 345 344 345 348 348 351 349 349 350 352 352 350 352 353 355
301 302 303 303 303 303 304 304 304 305 305 306 307 308 309 313 319 324 327 324 322 324 324 327 329 329 333 335 334 333 331 329 327 327 329 329 329 326 323 324 324 326 326 325 326 326 326 327 330 334 334 331 331 328 320 317 320 322 325 325 326 331 332 333 336 338 341 342 342 342 344 346 345 345 344 344 348 349 350 350 350 352 353 353 352 355 356 356
301 302 302 303 303 303 304 304 305 304 305 307 308 308 312 323 330 331 329 328 330 337 337 333 333 331 330 333 334 332 332 330 326 326 327 329 329 326 325 324 325 326 325 325 325 326 328 332 332 331 330 329 330 328 325 328 330 329 329 327 325 325 329 338 340 340 342 342 343 343 342 345 346 346 345 344 347 348 348 350 352 353 354 354 355 357 358 358
302 302 302 303 303 303 304 304 305 305 305 306 308 312 318 329 335 335 333 332 333 337 334 332 334 330 326 331 331 330 332 328 325 327 328 329 328 327 325 324 326 326 325 325 325 325 329 332 331 329 329 330 330 329 330 333 334 335 333 329 327 326 327 338 343 340 341 340 341 345 343 345 346 346 345 344 345 346 347 351 353 353 355 356 355 357 359 359
302 302 303 303 303 304 303 304 306 305 305 306 310 317 321 322 324 328 331 332 333 335 333 332 333 330 329 330 331 331 329 326 326 327 327 328 328 327 325 324 325 324 325 325 325 328 330 329 329 331 331 331 329 330 330 331 333 335 333 327 325 326 328 339 343 340 342 340 341 347 345 344 345 344 345 345 345 345 346 350 351 353 356 355 355 356 359 358
302 302 303 302 303 303 303 305 305 305 309 314 316 320 322 321 322 324 324 325 329 331 332 332 332 332 332 331 332 331 327 327 327 327 327 327 327 325 325 324 324 324 324 324 324 328 328 327 329 332 331 329 329 330 330 330 331 331 331 326 321 327 333 338 342 342 341 339 341 346 343 343 345 343 344 346 345 345 346 347 349 351 354 354 354 357 357 356
303 302 302 303 303 302 304 305 305 311 316 319 320 323 323 324 324 324 324 325 328 328 328 330 329 330 329 328 332 330 328 328 327 327 327 326 326 325 324 323 323 323 323 323 323 323 322 326 331 331 330 330 329 329 330 330 329 329 328 322 318 329 333 327 335 344 340 339 342 345 343 344 346 345 345 344 345 345 344 345 347 348 350 350 353 357 356 356
303 303 303 303 302 303 304 304 309 317 316 314 318 322 323 323 323 323 325 327 329 329 328 329 328 327 327 329 331 329 328 328 328 328 327 325 326 325 323 323 322 322 323 324 324 324 325 328 331 331 330 330 329 329 330 327 324 327 329 322 320 329 332 329 336 343 337 337 342 343 336 339 350 349 345 344 343 344 344 345 347 347 347 349 352 355 354 355
303 303 303 302 303 303 303 307 316 316 311 311 315 319 320 320 322 323 326 329 329 329 329 330 329 327 328 330 330 329 329 329 328 328 327 325 326 327 325 323 322 322 324 325 325 325 327 330 331 329 330 330 328 328 329 326 320 321 328 329 327 329 333 335 338 336 328 327 336 339 327 332 352 352 348 349 345 344 345 345 347 349 348 350 353 354 353 352
303 303 303 303 303 302 304 311 315 311 311 316 315 316 319 320 321 323 326 329 326 329 331 330 328 327 328 330 330 329 329 330 330 327 327 326 326 328 326 323 323 322 324 326 326 325 327 330 330 330 330 329 329 327 328 329 320 315 326 332 331 331 331 333 334 328 320 321 334 340 329 330 343 344 351 361 357 353 350 346 346 349 349 348 352 354 352 351
303 303 303 302 303 303 306 311 311 312 316 317 314 317 321 322 322 323 328 329 327 331 332 327 325 326 328 329 329 329 326 327 329 328 327 327 326 328 326 324 324 322 325 325 320 322 328 329 329 330 330 328 327 325 327 331 320 316 329 332 331 331 328 332 333 326 324 326 332 335 335 334 334 337 349 359 359 363 360 350 347 348 348 347 350 352 352 351
303 303 302 303 303 303 307 310 311 315 318 313 315 319 321 323 324 324 327 327 333 332 330 326 324 327 327 329 329 329 328 327 328 327 327 326 326 326 325 325 324 323 327 324 316 321 328 328 328 330 330 327 326 326 329 330 323 324 331 330 331 331 329 334 331 325 327 324 321 324 331 332 330 339 352 356 352 358 364 356 349 348 348 347 348 350 351 352
303 303 303 304 303 304 311 312 313 318 314 312 315 316 318 321 324 325 327 330 335 327 327 326 325 326 325 327 328 328 329 327 326 327 327 325 324 325 325 324 326 324 326 325 321 325 328 328 329 331 328 327 328 329 330 329 328 330 330 329 332 330 330 331 328 327 325 321 320 322 321 323 327 339 351 350 345 348 356 356 351 349 348 347 348 348 350 352
303 303 303 304 304 306 310 310 313 313 311 314 313 312 315 319 324 325 326 333 333 325 326 324 324 326 325 327 328 327 329 327 327 327 326 325 324 325 325 326 326 326 327 327 326 327 327 329 331 330 330 329 330 330 329 330 331 331 330 329 328 329 337 338 338 335 321 319 326 325 318 320 325 337 346 344 345 346 350 352 351 350 347 347 348 347 348 352
303 303 303 305 306 307 307 309 310 310 313 311 309 312 317 321 325 322 325 332 326 325 326 324 326 326 325 327 327 328 329 327 327 326 326 326 325 324 324 326 326 324 325 324 324 327 327 329 331 330 332 331 330 329 330 331 330 330 330 326 322 322 329 331 333 331 317 317 327 324 318 318 319 333 346 346 349 348 348 349 348 348 347 347 348 346 348 352
303 303 304 305 306 307 307 309 307 309 309 307 311 317 319 322 323 320 324 326 322 325 325 325 327 325 326 327 327 329 329 327 328 326 327 327 325 326 324 325 326 321 316 316 319 323 325 328 329 330 331 331 329 326 327 330 329 331 326 320 318 316 317 317 320 321 317 320 325 321 318 318 320 337 349 349 350 348 348 348 346 346 346 347 349 347 349 351
303 304 304 305 307 308 308 306 306 308 307 310 317 321 318 320 321 320 322 323 321 325 326 327 328 326 327 326 327 330 328 328 328 326 328 327 326 326 324 326 328 323 318 317 315 314 318 326 329 329 329 329 329 323 319 323 326 327 321 316 317 318 316 317 317 317 319 321 321 319 321 317 320 336 347 350 349 348 349 347 345 346 345 347 350 347 348 350
304 305 306 306 307 308 306 305 307 309 312 317 321 321 318 318 322 321 321 324 324 325 327 328 327 326 327 325 327 331 327 327 328 326 328 327 324 325 324 326 328 327 325 319 315 313 312 318 325 327 327 328 330 327 324 326 325 326 327 323 320 319 318 319 319 317 320 321 319 319 320 315 318 334 347 350 348 348 347 345 345 346 345 346 347 347 348 349
304 305 308 310 309 307 306 307 310 313 317 322 321 319 317 317 319 320 322 325 325 327 328 329 329 325 324 326 328 330 327 324 325 326 327 326 323 323 325 326 327 329 325 317 316 316 311 314 325 329 328 329 329 329 330 328 323 327 331 325 320 324 323 320 320 319 317 319 319 317 319 323 331 344 348 344 346 347 345 347 348 347 348 348 348 349 349 349
307 308 312 314 313 311 309 310 315 317 320 324 322 317 316 318 320 321 324 325 325 328 328 327 328 321 318 323 326 329 328 324 325 325 324 326 325 323 326 326 326 328 326 320 319 318 310 314 327 329 329 330 329 329 330 326 322 326 326 320 325 334 328 318 317 319 316 317 319 316 317 326 332 339 345 344 346 347 346 348 349 348 350 350 350 351 348 349
310 312 315 317 317 314 315 317 319 319 321 325 322 317 317 319 322 323 324 325 324 327 325 321 323 320 315 316 322 326 326 323 324 322 320 323 323 323 326 326 326 327 327 325 322 322 317 315 326 331 327 330 330 328 330 329 328 325 319 322 331 329 327 326 319 317 317 317 317 314 315 320 321 327 341 345 343 345 346 349 351 350 351 352 353 352 349 351
310 314 317 320 317 312 317 320 321 320 322 325 324 322 320 319 321 322 322 324 323 324 324 318 322 325 319 315 319 326 325 319 321 321 319 320 320 323 327 325 325 327 327 327 324 325 323 313 321 331 328 329 331 327 325 327 331 329 323 328 328 317 317 321 317 318 320 318 317 317 317 319 319 325 336 340 341 345 346 349 351 349 352 357 358 354 352 357
312 317 321 323 319 315 319 321 322 322 323 323 322 322 320 319 321 321 321 324 323 323 324 320 323 326 324 321 320 325 325 318 320 322 318 320 321 323 327 325 326 326 327 329 326 327 327 316 317 330 331 330 329 324 319 321 329 331 328 330 328 321 320 319 318 321 322 320 319 319 318 321 329 337 339 338 342 345 343 348 350 346 352 361 360 355 357 363
314 316 317 318 320 320 321 323 323 323 323 322 320 319 319 318 320 321 321 323 323 323 324 324 325 326 327 328 325 326 326 322 323 322 319 323 322 322 327 326 325 326 326 327 326 326 327 321 316 326 330 324 322 323 322 322 327 325 322 321 321 323 324 323 320 319 321 322 320 319 320 325 340 351 348 345 346 346 347 352 353 347 349 355 356 356 360 363
315 316 315 318 321 321 324 326 324 324 323 322 320 318 318 319 321 321 322 323 323 323 323 323 325 325 327 329 327 326 327 325 324 323 322 324 321 321 326 326 326 326 325 326 326 325 325 325 320 319 319 317 319 328 330 329 329 325 323 321 319 323 320 317 318 316 320 323 320 319 321 326 341 352 351 348 345 347 352 354 353 349 350 352 353 357 363 363
316 318 317 319 323 323 326 326 325 325 323 322 321 318 319 320 321 321 322 323 323 323 323 323 324 326 328 329 329 329 329 327 325 323 323 325 325 325 326 327 327 326 326 326 325 326 328 328 322 315 317 321 326 330 328 329 331 329 328 327 327 327 318 314 319 320 317 319 319 322 323 330 350 360 353 348 343 346 354 356 351 349 353 355 351 356 362 360
317 317 317 314 317 322 327 326 325 324 322 321 321 319 320 320 320 321 321 322 323 323 323 324 325 327 329 330 331 332 330 328 327 326 325 326 327 327 326 328 327 326 327 325 324 331 332 328 322 318 323 326 329 332 329 331 332 326 327 329 328 327 321 324 336 332 320 316 318 322 322 330 354 366 355 350 347 345 349 354 355 351 352 355 357 363 365 358
315 315 316 315 312 318 325 328 327 325 323 321 321 320 320 320 320 321 321 322 323 323 323 325 327 328 329 331 331 332 329 327 328 329 328 327 326 327 327 327 327 326 326 326 326 327 327 327 324 318 319 319 319 323 324 325 326 324 329 329 327 330 325 328 338 333 322 318 320 325 323 329 348 359 350 348 348 346 343 346 354 356 354 356 362 373 372 360
315 317 319 321 317 317 323 327 327 326 325 323 321 321 320 321 321 321 322 322 323 323 323 324 326 328 329 330 329 331 330 327 328 331 331 329 326 328 327 325 328 326 325 336 341 327 326 334 327 317 316 319 320 323 323 323 324 325 328 328 328 331 325 323 324 321 321 323 324 327 327 333 350 356 349 349 350 347 346 345 351 356 361 364 367 380 384 372
317 321 323 323 321 319 321 325 325 325 326 324 324 323 321 321 322 321 322 322 323 323 323 323 327 328 329 329 329 330 330 328 329 332 333 333 330 330 329 327 327 327 334 353 352 331 329 338 336 327 322 324 328 334 338 330 322 319 323 325 327 329 328 329 320 317 328 331 324 329 335 333 341 350 350 352 352 352 355 356 352 353 359 364 371 386 391 384
319 323 322 319 320 323 323 324 324 324 325 324 324 325 323 323 323 322 322 323 322 323 323 325 328 328 327 330 329 327 328 331 332 331 333 337 337 335 334 331 327 333 352 361 351 340 335 331 337 344 336 334 338 336 333 330 323 320 321 323 326 327 328 327 318 323 341 331 318 334 346 332 333 348 352 352 355 357 361 362 358 357 360 359 369 388 391 386
322 321 317 314 317 321 322 322 322 323 325 325 324 322 322 324 325 324 324 324 323 324 326 328 329 328 328 329 328 327 330 330 331 333 338 340 340 338 336 335 331 338 352 348 340 345 340 328 332 338 334 335 336 330 328 331 327 326 326 323 325 327 324 323 324 337 347 328 322 340 349 337 337 345 350 351 352 353 357 360 358 359 363 359 361 379 385 383
319 315 313 312 313 315 317 318 320 323 326 329 328 324 321 322 325 326 326 326 325 324 327 329 328 327 328 329 329 331 332 328 328 337 345 343 341 340 338 336 335 338 339 334 336 340 335 330 333 329 325 327 329 329 330 328 325 326 327 326 328 327 326 325 328 339 346 340 344 351 348 346 344 341 345 349 349 352 355 355 351 354 366 368 364 371 374 374
317 315 313 312 312 315 317 319 321 323 326 329 331 329 324 321 323 325 326 328 329 329 327 327 328 327 327 328 329 331 333 333 336 342 344 342 342 341 339 338 336 335 332 329 334 335 329 331 338 330 322 323 327 329 329 327 326 323 323 330 330 328 330 328 327 331 334 337 351 355 347 348 346 341 348 351 353 356 353 352 354 356 361 362 360 363 367 369
314 315 313 312 314 318 318 319 321 322 324 327 330 330 327 325 324 325 329 329 329 331 329 327 327 327 326 326 329 332 334 335 338 338 337 338 339 338 337 337 334 333 334 332 333 335 333 334 337 329 319 318 324 327 326 325 325 320 319 327 328 325 327 328 331 335 329 330 343 345 339 345 349 349 352 355 357 358 356 358 364 366 364 358 354 355 360 366
312 315 315 313 315 318 319 320 322 324 325 325 327 328 329 328 326 329 337 337 330 329 330 329 328 329 330 332 333 334 334 333 333 334 334 335 335 333 334 335 332 332 336 336 335 337 336 333 332 328 319 318 323 325 324 322 319 316 319 326 328 330 331 330 331 336 335 340 345 339 337 347 355 353 351 353 356 357 359 362 363 368 372 368 362 361 361 367
Wind_Speed
25 25 26 26 27 28 29 29 29 30 30 31 31 32 32 32 32 32 32 31 29 29 29 28 24 20 16 15 16 15 17 16 14 9 11 21 19 12 13 11 6 5 7 9 10 8 8 11 15 17 12 7 5 5 9 9 5 3 3 3 3 5 5 6 6 6 6 6 8 9 11 10 9 9 7 8 10 11 14 13 13 14 16 19 26 31 29 28
24 25 26 26 27 28 28 29 29 29 30 31 31 32 33 33 32 32 32 30 29 28 27 25 20 16 14 13 13 13 15 15 13 13 21 30 24 18 16 13 10 8 8 10 11 10 9 9 12 12 7 5 6 6 8 6 3 3 2 2 4 7 7 6 9 7 6 8 8 9 12 10 9 8 4 6 11 14 16 15 16 19 18 20 26 30 28 27
24 25 26 26 27 27 28 29 29 29 30 30 31 32 33 33 32 33 32 29 28 26 24 21 17 14 12 11 10 11 13 11 8 13 22 22 22 24 19 14 13 11 10 12 13 13 13 13 14 10 6 6 6 6 8 4 3 3 2 2 4 10 8 4 9 8 7 9 9 9 12 12 9 5 2 9 16 14 14 14 16 18 18 17 18 23 26 25
25 26 26 26 27 27 28 29 29 29 30 30 31 32 32 33 33 33 31 28 27 24 21 17 14 13 11 10 8 10 9 7 4 8 14 11 13 21 21 17 14 13 13 14 14 15 17 18 17 12 7 6 6 6 6 3 2 2 4 3 3 9 10 8 9 8 8 10 10 10 12 13 10 7 5 10 13 11 11 13 16 18 19 18 16 18 21 22
25 26 26 27 27 27 28 28 29 29 30 30 31 32 32 33 32 33 31 27 25 22 18 15 13 11 9 8 7 9 6 3 2 6 13 8 10 16 22 21 15 13 13 14 13 14 17 16 13 11 6 4 5 5 4 4 2 1 4 6 6 6 7 11 10 7 8 9 9 11 12 10 9 7 7 9 8 8 11 13 17 18 17 18 17 18 19 18
26 27 27 28 28 28 28 29 29 30 30 30 30 31 32 32 32 32 30 26 24 20 15 13 12 10 8 7 7 7 2 2 6 10 17 9 8 13 18 20 16 13 12 13 12 11 11 11 10 8 5 5 6 6 5 4 2 4 5 6 7 6 7 9 9 7 6 9 10 12 12 10 9 6 6 8 5 9 16 16 17 16 17 19 18 18 16 15
26 27 27 29 29 29 29 29 29 30 31 30 31 31 31 32 32 32 29 25 21 17 13 12 12 11 8 6 6 3 1 7 17 17 17 6 7 12 16 18 16 14 13 12 11 10 8 9 9 6 6 7 8 9 7 4 4 6 5 5 7 8 7 5 7 8 8 10 11 10 11 11 10 6 6 8 7 14 19 17 17 16 18 18 16 15 14 14
26 27 28 29 29 30 30 30 30 30 31 31 31 31 31 31 31 32 29 23 19 15 12 12 12 11 8 5 3 3 3 14 22 18 12 5 9 12 15 16 16 15 14 14 13 10 8 10 10 8 8 9 8 8 4 4 5 5 5 6 7 7 8 6 7 9 10 10 11 12 11 10 10 7 7 8 11 17 18 16 17 15 15 14 13 13 12 12
26 27 28 29 29 30 30 31 31 31 32 32 31 31 32 31 31 32 27 20 17 14 11 12 12 10 6 4 2 3 6 16 20 16 10 9 10 13 16 15 17 17 14 17 17 11 8 9 11 11 9 9 9 5 3 5 4 6 9 8 7 7 8 7 7 10 11 10 11 13 11 9 9 8 7 9 14 17 16 16 15 14 13 12 11 11 10 9
26 27 28 29 30 30 30 31 32 32 32 32 32 32 32 31 31 32 26 18 15 13 11 11 10 8 4 3 3 3 8 9 12 17 14 11 12 16 19 16 18 19 13 16 17 13 11 11 11 11 9 8 7 3 5 6 5 8 10 8 7 8 7 7 9 12 13 12 13 12 10 9 7 6 7 10 14 15 15 15 13 12 12 11 11 10 10 9
26 28 29 30 30 30 31 32 32 33 33 33 33 32 32 32 31 31 24 16 14 13 9 9 8 5 3 3 3 5 8 5 11 16 11 12 16 18 21 18 18 21 15 14 16 16 16 15 14 9 5 5 4 2 4 8 8 8 11 9 7 7 8 9 11 11 10 11 13 12 11 10 7 5 7 11 12 13 15 14 13 11 9 10 11 9 8 8
27 28 29 31 31 31 31 32 33 33 34 34 34 33 32 32 32 29 21 14 11 11 7 6 4 2 3 4 6 14 15 5 6 11 10 12 15 18 21 20 19 22 18 13 13 19 20 21 18 11 8 5 2 2 4 9 9 9 10 9 6 6 8 9 9 10 9 9 14 13 10 9 7 7 9 11 12 13 14 13 13 11 8 10 10 8 6 7
28 28 30 31 32 32 32 32 33 34 34 35 35 34 33 33 32 27 18 13 9 10 8 2 0 1 3 3 11 21 22 13 11 10 13 14 12 15 18 19 20 22 21 17 16 20 23 25 20 13 11 6 1 1 2 5 8 9 8 7 6 5 5 7 8 11 9 11 17 12 5 6 8 9 10 10 12 14 12 11 11 9 8 9 9 7 5 7
29 29 30 31 32 33 33 32 33 34 35 36 36 35 33 33 32 23 15 12 9 8 7 2 2 2 2 6 17 21 21 19 22 19 14 15 12 13 15 17 19 21 22 23 23 22 24 26 18 9 8 6 2 2 1 2 7 7 7 6 5 4 4 7 7 9 8 9 16 11 4 6 9 9 9 8 11 13 10 10 10 9 9 9 8 6 5 6
30 31 31 32 32 33 33 33 33 34 35 36 37 36 34 34 31 19 13 11 8 6 6 3 3 1 1 9 18 16 13 16 22 20 13 16 14 12 14 18 20 21 22 23 24 24 25 22 11 5 7 8 5 3 0 3 5 4 6 4 4 4 4 8 7 8 7 7 11 7 4 6 9 10 10 7 10 11 9 10 10 10 11 10 8 6 5 6
31 32 33 33 33 33 34 34 34 35 36 37 37 36 34 34 27 16 11 10 6 4 3 2 5 5 2 6 11 10 10 13 16 15 11 16 16 13 16 19 18 20 21 22 23 23 22 14 4 3 6 7 6 3 2 4 3 3 5 4 4 3 2 6 7 7 8 7 5 5 5 7 8 11 11 8 10 11 9 9 10 11 11 10 8 7 7 6
31 32 33 34 34 34 34 34 34 35 36 37 38 37 34 31 23 13 9 7 4 3 5 5 3 4 5 8 10 7 10 13 14 15 14 17 18 17 17 13 12 14 16 19 21 17 13 8 3 3 4 5 5 3 3 3 4 3 4 4 5 5 2 3 5 6 9 7 5 4 6 9 10 12 12 10 10 9 8 9 9 10 9 10 9 7 7 7
32 32 33 34 35 34 34 34 34 35 37 37 37 37 34 26 15 6 2 3 2 1 6 9 4 1 5 9 8 8 11 14 17 18 17 18 20 21 18 11 8 9 10 11 12 10 7 4 3 2 4 5 7 4 5 6 6 7 6 4 6 8 5 4 4 5 9 9 7 4 6 12 13 13 12 11 12 10 8 8 7 9 9 9 9 6 8 8
32 33 33 34 34 35 35 34 34 36 37 37 36 34 27 15 5 2 3 4 3 1 4 4 5 3 4 8 10 13 14 14 17 17 16 19 20 20 17 12 8 7 6 4 6 8 5 2 3 3 5 6 8 6 6 8 11 13 11 7 8 9 8 9 8 8 10 7 6 7 8 13 14 13 13 13 13 12 9 8 6 8 9 8 8 6 8 8
33 34 34 34 35 36 35 34 34 35 37 39 34 24 13 5 3 2 2 4 6 7 9 7 10 9 10 12 10 13 15 14 14 13 16 21 18 15 11 10 7 6 6 4 6 7 4 3 4 5 8 10 11 10 8 9 14 17 13 9 11 11 9 13 13 9 10 6 5 8 7 12 15 12 13 13 13 13 12 11 8 8 8 8 8 7 8 8
35 35 34 35 35 35 36 35 33 34 38 35 22 9 3 5 5 4 3 6 10 12 14 13 12 14 16 17 16 13 10 10 11 11 17 21 15 10 8 8 8 6 6 8 7 5 5 5 6 8 11 13 13 11 11 10 10 12 12 10 10 10 9 14 14 9 11 7 5 8 6 10 14 12 12 12 12 13 13 13 11 10 10 8 8 9 9 8
35 34 35 36 35 36 36 34 34 34 30 18 6 2 6 10 11 13 11 8 10 12 14 17 16 16 19 22 26 21 9 8 10 10 16 20 12 7 8 8 8 6 7 9 6 5 6 6 9 12 13 14 14 12 11 11 10 8 7 8 8 8 8 11 12 11 10 6 7 10 7 8 13 12 12 12 10 10 13 14 13 13 11 9 9 10 10 8
35 34 36 35 36 38 34 34 34 26 17 10 7 8 11 17 22 25 17 7 11 13 11 15 15 14 17 18 23 23 11 9 9 10 17 18 10 8 10 9 9 7 8 10 8 5 5 6 11 14 14 14 13 11 10 10 9 8 5 4 5 9 11 8 9 13 11 7 9 12 7 7 10 10 10 12 10 8 13 16 15 15 13 12 11 11 11 10
35 35 35 35 38 37 34 36 27 13 16 20 19 18 19 23 28 27 15 4 9 12 13 17 14 12 15 16 20 17 11 9 9 10 16 16 10 8 9 10 10 8 8 11 12 9 6 7 11 14 15 14 12 10 11 9 6 7 7 5 5 10 15 13 12 12 10 8 11 11 6 4 7 8 8 10 10 9 13 15 14 15 14 13 13 12 13 12
36 36 35 36 36 36 38 30 13 13 27 26 20 20 23 24 27 23 9 2 6 9 13 16 10 12 18 18 16 10 9 9 9 10 14 15 11 8 8 8 7 8 10 13 13 10 8 10 12 14 14 13 11 10 11 9 5 6 8 8 6 7 11 16 17 12 7 6 11 11 6 4 5 7 9 8 9 10 11 14 14 14 14 13 13 13 13 12
37 36 35 35 35 39 34 14 10 26 27 16 15 22 26 25 28 24 8 2 5 6 9 9 7 11 18 13 8 8 8 8 9 12 15 17 15 8 6 6 4 8 11 11 9 6 7 11 13 15 14 13 13 9 9 9 6 5 6 8 7 6 2 15 20 12 6 5 9 13 8 3 4 6 10 8 8 10 9 13 15 13 14 13 12 14 14 12
37 35 36 34 33 36 24 9 20 27 13 10 19 26 26 25 27 21 5 2 5 6 8 7 7 13 16 11 10 9 6 6 8 12 15 19 17 8 7 7 5 8 8 7 6 5 8 12 14 15 13 11 10 8 8 9 7 5 5 7 6 9 7 14 19 9 6 4 6 12 9 5 4 8 10 9 7 6 6 11 14 14 15 14 13 15 16 14
37 36 36 33 32 30 17 16 20 14 10 16 23 25 26 26 23 13 1 2 5 3 6 4 4 11 12 10 14 9 4 6 9 10 14 23 20 8 7 9 8 11 11 7 6 7 10 13 14 15 12 8 6 8 10 9 8 5 7 7 6 10 10 9 13 6 6 6 5 9 9 6 5 6 8 9 8 7 8 10 13 15 16 15 14 16 16 16
38 37 35 34 34 25 12 13 14 11 15 20 23 28 27 23 16 4 1 3 4 2 2 2 2 7 7 9 15 11 7 7 7 8 13 21 21 11 6 9 9 12 13 11 7 7 10 12 13 12 9 7 7 10 11 8 6 5 9 8 5 10 9 3 8 5 4 5 5 9 10 5 3 5 7 7 8 10 11 9 9 13 16 15 15 16 16 15
39 37 35 35 34 24 13 16 23 17 17 19 24 29 23 13 5 2 3 3 4 2 2 1 1 7 8 9 12 11 11 9 6 9 11 13 16 12 5 7 9 8 10 12 11 9 10 12 12 10 8 9 10 11 11 8 5 5 7 8 7 6 4 1 4 4 4 1 5 8 11 9 4 5 8 9 13 16 13 9 9 11 15 16 14 14 15 14
40 38 36 34 33 25 14 16 21 12 12 20 26 24 13 3 1 3 4 2 5 3 4 2 4 10 11 10 10 11 12 10 7 11 11 9 12 11 5 6 6 5 6 8 9 12 12 10 9 7 7 11 12 11 9 8 7 6 6 4 4 3 1 3 3 4 3 3 6 6 5 9 5 5 9 14 18 19 15 14 14 14 15 15 13 12 13 13
41 39 36 34 32 26 17 19 21 15 16 22 21 11 4 1 3 4 4 3 4 5 8 6 8 10 12 12 10 11 11 9 9 10 11 10 8 9 8 6 4 4 5 5 7 9 11 9 8 7 7 9 10 8 6 6 6 7 5 2 2 1 1 1 4 1 2 4 6 5 6 5 5 7 15 19 17 17 18 17 18 17 15 14 13 12 12 12
42 40 37 32 27 25 27 27 25 22 19 17 10 3 1 2 4 6 8 5 4 5 4 8 13 12 12 12 10 12 12 9 11 10 11 12 8 9 11 11 8 6 5 5 6 7 7 9 9 10 7 7 7 6 5 5 5 6 5 3 4 3 2 2 1 2 3 5 5 5 6 5 5 5 13 21 19 17 18 17 16 17 16 15 15 13 11 13
42 38 35 30 24 25 29 26 24 19 12 8 5 2 3 5 4 7 11 9 10 11 8 5 11 14 13 11 9 11 10 9 12 11 11 12 8 8 10 14 15 9 5 5 6 6 6 6 8 8 6 7 8 5 5 7 6 6 6 6 4 4 4 3 3 4 3 4 4 6 5 4 5 5 6 17 19 14 14 14 15 17 17 15 14 12 12 13
40 34 32 29 25 25 23 22 21 14 5 2 3 3 6 6 5 8 10 10 11 12 13 14 10 13 11 9 11 12 9 8 13 12 10 11 9 8 9 11 16 12 7 6 4 5 7 5 9 12 8 11 11 8 7 8 7 6 5 6 5 3 5 4 4 5 4 3 3 3 4 3 6 5 2 11 15 13 14 13 12 13 12 12 12 11 12 11
39 35 27 21 23 22 16 16 17 14 8 3 3 5 7 6 6 8 8 9 10 10 12 15 11 10 9 7 9 13 11 8 12 11 7 11 12 10 10 9 13 14 10 6 2 4 6 3 7 13 10 11 13 11 10 8 6 3 3 5 5 3 4 4 4 5 4 3 3 3 4 1 0 4 3 15 16 13 12 10 12 14 12 12 11 12 12 11
38 30 18 19 25 21 15 12 17 18 8 3 4 6 6 7 11 11 10 11 12 12 10 9 6 4 7 8 7 11 13 9 11 9 6 10 11 11 13 11 13 15 13 8 4 4 6 4 4 13 11 9 11 11 13 11 6 4 4 6 5 4 3 3 1 2 3 3 4 4 6 3 3 3 2 14 17 12 9 10 12 15 15 14 11 11 13 11
32 19 14 23 25 20 19 17 20 17 5 3 7 8 7 9 12 14 14 13 14 14 11 7 6 5 4 8 7 11 12 9 9 8 7 8 8 12 14 11 13 17 16 13 7 5 6 4 5 13 15 11 11 10 12 12 8 5 6 8 7 4 5 3 2 2 3 3 2 3 6 4 4 4 5 11 14 12 10 11 12 13 13 11 10 11 12 10
21 8 8 16 14 9 24 26 19 10 4 5 8 7 7 10 14 16 15 13 13 13 11 9 9 8 8 6 7 11 12 10 9 7 6 6 6 14 17 10 12 19 19 16 9 6 6 3 4 11 16 11 9 8 7 7 8 4 4 6 7 5 5 5 4 3 4 3 1 3 4 3 4 4 9 11 10 11 11 10 12 13 12 10 9 10 10 9
11 3 7 17 9 16 30 26 13 5 5 6 7 7 7 10 13 15 17 15 12 9 8 12 11 8 9 8 7 9 10 12 10 7 7 8 7 12 17 13 10 17 21 19 12 7 6 5 4 7 14 11 6 7 8 6 5 4 3 5 5 4 4 4 5 4 4 4 3 1 3 3 6 2 7 10 9 10 10 9 8 10 11 11 10 10 9 8
6 3 6 10 8 33 30 13 6 4 5 6 7 9 10 10 11 14 17 17 14 10 11 14 14 12 11 10 9 7 7 10 11 8 6 9 9 7 12 15 12 13 17 17 13 8 5 5 4 4 8 7 6 10 11 9 7 5 4 5 5 4 4 3 3 4 3 4 4 4 1 4 6 2 6 8 8 8 9 9 7 7 9 9 9 10 10 8
4 4 7 11 7 27 19 4 5 5 5 7 8 11 11 10 12 13 14 15 14 12 12 14 15 15 13 10 7 6 4 4 9 10 7 10 12 9 11 18 17 14 12 10 10 11 6 4 4 4 6 7 8 14 16 13 10 8 5 4 3 3 3 4 3 4 2 3 4 5 3 4 6 2 7 8 9 9 8 8 7 7 9 9 8 10 11 11
2 8 18 23 14 10 8 3 6 5 6 8 10 13 13 11 12 12 12 14 13 11 11 10 12 13 10 8 8 8 6 3 5 8 9 11 13 13 15 20 20 17 12 7 8 10 7 5 5 2 3 8 10 12 17 16 12 8 7 6 6 6 6 4 5 4 3 4 4 4 3 3 7 2 6 8 9 9 8 7 7 7 8 9 8 8 10 12
4 7 13 19 18 10 6 5 5 5 7 10 12 15 14 12 13 13 13 13 11 10 10 9 11 11 9 8 9 8 5 3 6 7 7 9 10 16 20 21 20 16 10 7 7 7 6 5 5 1 1 6 8 7 10 13 10 6 4 5 7 10 12 7 1 2 3 5 6 5 3 4 5 1 7 8 8 8 7 7 8 8 7 7 7 7 9 10
5 4 5 10 13 9 6 5 5 6 7 10 13 15 14 12 12 14 15 15 15 13 11 9 10 9 8 9 10 8 6 5 6 7 6 8 8 14 19 22 21 15 12 13 11 8 6 5 5 4 3 5 7 6 6 7 6 4 5 7 8 9 11 8 2 2 3 6 6 7 4 5 5 3 8 8 8 8 7 7 8 8 7 7 7 7 7 8
4 3 3 5 6 4 5 7 9 8 8 9 10 11 14 14 12 14 16 15 16 17 14 11 10 10 10 10 9 9 9 8 7 8 7 6 5 5 8 16 21 16 16 20 16 8 5 5 6 7 8 8 6 6 6 9 7 6 8 11 11 10 8 6 5 4 4 4 4 6 10 8 6 5 8 8 9 9 8 8 8 7 7 7 7 7 7 8
2 3 4 5 5 5 4 6 7 7 9 10 7 8 14 15 11 12 13 12 14 17 13 8 7 8 10 11 9 9 10 8 8 11 7 5 4 7 11 9 15 20 19 18 15 8 3 4 8 9 9 10 8 6 5 8 9 9 11 13 13 14 10 5 6 7 7 7 4 8 15 14 11 11 10 9 9 9 8 9 9 8 8 8 7 8 8 8
3 3 6 7 4 4 5 6 10 11 13 12 9 10 15 16 13 11 9 10 14 13 6 3 7 11 13 13 10 8 8 8 8 7 4 6 6 8 13 15 8 14 20 13 8 7 3 3 8 9 9 9 9 9 7 6 7 6 7 12 16 16 14 9 7 7 9 8 6 11 16 16 14 12 12 12 11 10 9 9 9 8 8 8 8 9 9 9
4 3 5 7 5 6 8 12 15 15 14 13 9 10 15 16 16 13 7 8 11 7 5 5 10 14 15 14 10 7 6 7 6 2 3 5 6 7 6 10 13 6 13 13 8 5 3 2 5 6 7 8 9 11 9 7 6 5 8 8 11 13 12 11 9 7 8 7 8 13 14 13 13 14 13 13 11 10 9 8 9 9 8 9 9 9 9 9
5 3 5 6 6 8 9 10 12 11 11 11 8 9 13 15 16 15 9 7 8 6 4 9 14 15 15 14 12 7 5 7 6 3 3 5 4 5 3 3 9 13 8 7 6 4 4 5 5 3 2 2 6 10 12 11 6 5 10 10 8 9 9 9 9 8 8 6 8 14 13 8 9 11 10 9 8 9 9 8 8 8 9 9 8 8 8 9
9 9 8 6 6 7 7 8 9 9 7 7 8 9 10 11 13 12 7 4 7 9 10 14 16 13 12 15 12 7 8 10 10 9 7 6 3 2 2 5 9 12 11 7 3 6 5 4 4 4 2 1 4 7 11 12 8 8 11 10 10 9 6 5 4 4 7 7 7 12 9 6 6 7 8 8 9 9 9 8 7 6 6 7 6 5 6 7
13 11 8 6 6 6 6 7 9 8 6 7 11 11 9 11 13 10 4 3 7 11 12 15 15 9 5 8 8 5 9 9 9 10 6 4 4 3 3 8 13 11 8 6 1 5 7 4 3 4 3 1 4 8 8 7 6 8 8 8 9 7 3 4 7 8 9 7 7 7 6 5 5 7 8 8 9 9 7 7 7 6 7 7 5 3 2 4
Wind_Direction
2 2 0 360 357 355 354 354 354 351 351 350 349 349 347 347 345 343 340 337 336 334 333 331 329 327 328 332 330 323 321 318 307 289 242 254 259 241 242 251 257 247 231 233 244 259 267 257 243 240 247 247 232 232 243 237 218 213 193 179 168 144 166 185 149 156 172 139 129 122 117 116 113 116 128 138 130 115 107 106 112 111 111 116 121 127 134 134
360 360 360 358 357 355 354 353 353 352 351 349 349 348 347 346 344 343 340 337 336 334 334 332 330 332 336 340 336 331 330 321 306 276 259 264 260 242 234 235 242 234 224 229 234 237 241 256 246 231 224 229 234 225 227 231 198 197 207 154 126 135 179 189 143 151 152 128 127 123 118 109 108 118 133 117 102 96 97 99 102 104 110 117 125 134 139 136
358 358 358 357 356 354 353 352 352 351 350 349 348 347 347 346 344 343 340 337 337 335 335 331 330 337 343 346 344 344 338 326 302 265 276 278 251 239 231 229 235 226 228 232 231 236 246 266 266 250 220 229 243 213 207 211 197 209 152 84 98 122 145 148 117 130 136 127 126 120 112 107 110 108 94 107 102 100 106 113 115 118 126 127 129 134 135 133
356 355 355 355 355 353 352 351 350 350 349 349 347 346 347 345 345 343 340 338 337 337 335 330 332 338 348 353 350 353 346 315 269 255 294 293 229 221 217 222 226 220 231 235 239 252 267 280 279 267 236 230 247 225 205 179 197 203 118 113 75 97 125 125 110 123 131 133 133 124 117 119 126 122 115 119 115 115 124 130 130 132 135 133 135 137 137 137
354 353 353 353 353 352 350 349 349 349 348 349 346 346 345 345 345 343 341 338 337 337 333 330 329 335 352 358 356 358 360 316 320 5 345 310 211 200 204 212 214 217 227 231 250 267 272 276 276 275 266 248 262 259 219 180 186 104 111 124 101 80 111 116 116 131 130 130 123 108 103 107 118 125 123 121 126 133 133 133 132 134 136 138 142 143 143 146
352 351 351 350 351 350 349 348 348 347 347 347 345 344 344 345 344 344 342 336 337 337 333 331 324 330 345 358 15 7 30 294 311 338 342 326 198 196 199 203 209 216 221 228 250 267 269 267 265 273 274 258 258 259 229 196 168 92 81 86 92 85 90 111 133 139 121 112 103 101 104 103 101 104 114 116 121 127 126 129 131 132 137 143 146 147 150 153
351 350 350 349 348 348 347 346 345 345 344 345 344 343 343 343 342 343 340 335 337 335 335 331 321 323 329 354 12 352 172 268 278 287 306 308 177 197 198 200 208 208 211 224 240 246 254 259 257 254 255 255 243 238 225 183 128 99 101 102 95 96 99 113 123 108 93 97 100 107 112 112 109 100 100 99 96 114 120 125 129 134 142 147 148 150 151 155
350 349 348 348 347 346 345 344 343 342 342 342 343 341 342 342 341 341 338 334 333 333 336 330 319 317 327 1 341 304 226 251 264 275 280 221 169 189 193 197 204 200 203 220 233 233 242 253 249 245 250 248 243 241 221 122 106 105 115 113 97 95 95 82 86 94 93 92 90 90 90 96 112 121 105 96 103 113 119 126 131 137 145 149 152 151 147 158
350 348 347 347 345 345 343 342 341 340 339 340 340 340 339 340 340 339 337 331 327 328 332 331 319 308 323 357 305 289 264 257 260 256 234 191 176 184 188 193 197 195 203 225 235 237 240 246 239 236 241 250 265 258 137 99 102 111 103 102 109 110 103 100 101 100 95 90 88 89 90 91 107 122 109 106 114 117 122 128 134 141 148 154 152 144 144 162
349 348 346 345 344 343 341 340 339 338 338 337 338 338 336 338 339 338 335 327 323 322 327 337 320 300 327 325 259 258 265 257 234 220 209 194 184 181 186 192 195 193 206 231 234 235 237 246 251 250 250 260 275 244 142 124 119 114 114 118 122 119 118 118 104 99 100 102 105 105 111 109 105 112 105 111 117 124 128 130 139 144 151 155 142 140 155 168
347 346 345 344 342 342 340 339 337 336 335 334 335 335 334 335 337 337 332 321 319 315 322 346 323 300 334 304 255 239 240 191 180 194 194 195 187 186 189 190 199 197 207 233 233 235 242 254 265 273 270 257 251 227 136 127 126 123 126 118 113 116 106 103 102 110 114 115 122 126 129 122 110 111 119 127 127 131 133 137 146 147 153 144 132 145 166 170
345 344 344 342 341 340 339 337 335 334 333 331 331 331 332 333 335 336 327 315 315 307 314 352 333 314 343 294 240 238 239 210 187 191 181 193 195 198 192 185 200 204 208 231 239 237 243 253 259 264 264 253 234 207 140 141 135 134 132 119 139 132 107 121 129 134 131 130 138 136 131 125 121 128 132 137 138 137 140 147 149 147 148 130 131 156 174 173
344 343 342 341 340 339 338 336 335 333 331 329 328 329 330 330 331 332 323 308 302 299 302 328 129 18 17 272 246 254 258 258 267 242 188 184 198 201 193 190 204 209 214 231 245 241 241 248 252 262 268 270 279 201 177 149 128 138 134 120 155 134 124 159 143 143 142 137 148 144 122 120 126 135 139 147 145 142 148 153 148 144 138 124 136 164 183 175
343 342 341 340 338 337 336 335 334 331 329 327 326 326 327 329 328 328 320 300 288 292 287 231 136 76 69 255 271 279 272 266 274 265 200 173 193 195 196 209 214 213 220 234 248 251 250 250 255 277 280 283 263 203 268 113 121 136 121 114 156 131 151 163 137 155 150 146 161 153 109 131 139 142 148 158 147 146 154 152 151 143 133 126 139 164 183 171
341 340 340 339 338 336 335 335 333 331 329 326 324 323 325 326 323 321 313 290 281 284 271 254 209 193 324 272 285 289 259 257 267 257 200 173 191 192 198 217 223 220 222 234 247 257 262 258 257 282 286 299 288 230 151 115 135 137 124 135 148 122 169 159 149 175 156 161 173 144 108 139 147 148 151 164 149 151 158 152 154 144 137 136 143 169 176 164
340 339 338 338 337 336 334 334 333 330 328 325 322 320 323 324 318 314 303 275 269 253 223 256 206 196 284 273 293 287 221 227 243 240 211 190 195 194 197 211 226 227 224 231 243 254 267 273 259 257 279 300 289 235 122 118 149 142 134 144 128 124 220 163 161 175 141 141 158 140 142 144 150 149 151 171 160 156 160 156 158 148 143 141 149 177 164 160
339 338 337 337 336 335 333 332 332 330 327 324 322 319 321 321 312 305 288 250 249 215 210 274 230 175 257 273 302 284 208 204 216 227 224 202 198 197 192 203 227 226 223 231 240 250 266 277 258 265 277 279 269 222 158 153 158 142 138 141 145 164 210 152 166 161 137 142 164 168 143 139 149 147 152 171 163 159 162 163 164 150 146 145 157 177 155 160
340 337 336 335 335 334 332 331 332 331 327 323 322 321 321 320 314 308 262 174 136 206 248 279 284 176 249 255 258 237 214 200 206 225 218 195 202 201 188 196 223 221 222 231 239 246 253 241 202 246 269 259 263 224 175 174 155 152 169 163 154 170 176 155 174 176 159 161 161 140 118 136 148 151 159 167 159 165 170 170 166 145 143 149 161 168 153 159
340 338 336 334 334 332 330 330 331 331 328 322 321 324 322 322 340 104 145 147 132 194 276 240 195 210 278 256 230 229 235 200 196 222 202 183 205 206 189 197 215 218 221 215 220 227 241 252 178 221 255 248 251 236 190 171 160 163 175 178 165 172 182 170 186 199 173 165 151 138 136 145 153 162 166 165 162 168 172 172 160 142 146 153 161 162 156 159
341 338 336 334 333 331 329 329 329 331 329 323 323 331 329 324 11 77 161 205 210 233 260 228 192 227 272 283 262 232 230 199 187 212 190 181 201 206 186 193 207 215 216 203 210 212 207 231 213 215 240 247 252 251 234 196 175 171 174 183 176 173 184 175 182 187 161 167 165 147 150 151 155 166 168 167 167 167 168 169 160 150 153 157 166 167 159 162
339 337 336 335 333 330 328 327 328 329 326 321 321 332 300 289 298 293 283 244 230 229 247 247 223 233 252 266 268 243 219 192 187 198 186 185 198 201 174 183 203 208 213 214 217 208 194 218 224 222 234 244 251 251 248 240 211 188 180 186 184 178 182 170 169 171 157 157 148 145 162 159 157 167 170 169 170 169 167 166 164 160 159 165 175 169 162 162
338 338 335 334 333 330 327 326 327 326 326 325 312 236 253 282 286 282 287 282 266 254 252 253 243 246 251 253 259 252 220 177 194 192 179 182 193 194 164 178 208 201 206 220 222 201 202 222 220 223 233 238 247 247 242 250 251 235 199 188 190 169 156 159 166 177 170 150 150 165 170 158 160 168 171 173 177 174 166 164 165 162 162 174 177 164 164 166
338 337 335 335 333 330 327 326 326 326 335 336 284 259 268 290 298 291 285 291 289 280 267 259 249 248 248 249 256 246 207 172 195 191 177 178 192 196 172 180 208 204 200 214 224 205 198 223 218 220 230 233 240 242 240 248 253 258 239 195 192 159 146 158 180 183 176 154 165 170 156 149 162 168 171 174 178 170 164 165 164 163 168 177 177 163 167 170
338 338 337 335 333 331 328 327 327 330 338 324 288 275 287 303 309 298 283 290 289 279 266 259 254 248 243 246 251 234 188 174 196 188 179 180 192 197 185 185 200 212 207 208 223 227 207 209 221 229 232 234 233 225 231 243 244 254 253 236 206 173 165 167 174 176 164 158 172 158 130 165 171 165 174 176 178 170 164 165 162 166 171 173 173 165 170 173
338 338 336 335 334 331 329 329 331 333 332 319 290 293 313 325 330 322 306 289 277 272 260 246 238 247 242 243 244 212 165 185 198 184 180 189 199 193 192 189 192 214 211 206 219 232 218 201 215 232 235 239 241 224 220 228 249 267 251 246 235 202 175 157 159 166 155 177 181 147 121 220 209 176 178 177 181 178 168 168 165 166 169 170 171 169 174 176
337 337 336 336 335 333 334 336 327 329 326 308 303 324 331 332 337 336 332 259 270 265 243 204 169 217 225 227 219 166 166 199 200 189 178 190 209 206 197 189 182 214 211 206 216 229 222 205 211 228 231 230 238 242 224 210 238 272 235 241 258 276 237 151 157 165 167 198 182 156 147 207 232 200 187 176 177 184 176 170 167 166 170 173 169 169 178 177
335 334 335 335 334 338 339 310 317 327 313 301 327 333 332 331 333 334 340 225 263 232 201 170 150 185 193 192 185 169 178 177 188 203 179 179 207 224 211 192 174 213 215 203 208 213 220 212 209 223 232 226 223 237 232 199 210 256 229 217 232 268 258 170 167 168 162 188 189 170 147 124 208 216 192 171 162 186 197 179 172 170 173 176 171 171 178 176
333 332 334 332 331 335 323 294 310 313 283 314 331 331 332 331 328 329 2 256 277 220 169 161 159 176 176 179 184 188 211 169 177 208 175 171 194 219 220 207 191 209 221 218 205 193 218 228 215 213 225 235 220 221 231 208 196 235 243 223 210 238 251 179 166 173 159 173 214 189 146 119 205 213 184 171 170 197 215 201 183 173 175 177 173 174 175 173
331 330 331 329 326 329 326 296 285 276 301 323 333 332 330 325 320 323 149 270 281 317 156 163 136 169 179 183 184 189 208 200 189 188 163 169 194 215 231 226 212 208 218 231 230 195 206 229 227 212 206 227 241 231 234 221 190 220 247 261 252 226 239 180 162 173 149 161 227 206 168 150 204 190 173 174 187 204 209 205 193 178 177 178 175 176 173 170
329 328 328 328 322 323 333 294 273 282 311 319 326 325 318 315 319 202 230 251 273 304 139 113 102 166 188 191 184 184 197 216 209 178 164 166 193 211 242 252 237 222 217 225 236 233 216 215 225 225 194 201 235 240 230 217 202 216 234 260 272 238 226 140 152 121 88 174 254 224 181 171 195 196 179 181 196 201 194 192 197 184 180 181 179 176 171 168
327 324 324 323 312 310 319 283 275 298 310 309 322 322 310 302 157 220 230 247 290 258 155 166 160 165 189 197 182 179 196 221 214 183 174 164 185 202 225 245 237 240 236 218 227 245 240 217 212 225 200 192 218 235 213 197 213 225 219 224 253 274 8 24 14 70 96 239 253 261 214 187 203 217 198 201 203 194 184 187 192 188 184 183 181 174 168 167
325 322 318 313 303 292 270 261 278 294 296 307 320 318 306 222 209 232 237 272 280 192 170 182 175 172 190 197 190 180 189 221 227 200 178 167 183 198 205 218 206 212 233 220 213 232 246 237 206 207 221 204 206 222 201 188 221 231 230 206 150 278 259 14 346 5 192 239 235 283 300 237 223 209 197 205 208 192 185 189 188 186 184 180 180 177 168 164
324 320 313 307 299 281 265 270 282 287 298 315 315 278 250 250 222 221 233 256 256 214 181 168 175 184 190 190 192 185 185 210 225 212 178 171 187 195 205 220 219 209 216 219 210 206 234 250 218 196 212 217 202 198 178 188 223 218 216 207 150 133 163 176 251 233 248 265 242 252 277 270 270 233 194 199 204 193 186 185 184 188 186 178 178 176 166 164
322 317 313 307 296 278 271 275 276 278 296 310 289 232 222 239 235 237 238 239 252 266 282 236 184 181 192 197 190 188 190 205 218 212 176 171 190 196 201 218 224 224 215 217 222 204 209 236 230 209 189 187 202 203 170 179 213 218 202 197 176 147 153 171 180 188 228 259 252 242 238 225 244 259 201 194 195 181 180 187 183 187 187 177 176 173 166 166
321 318 316 305 290 278 269 265 261 259 254 245 261 215 216 231 230 245 247 242 254 264 273 272 228 180 188 202 194 196 197 202 216 217 182 169 188 198 194 209 222 224 216 213 225 218 215 220 222 222 193 167 189 221 203 184 207 221 182 179 201 183 153 165 198 188 197 243 254 239 228 198 216 250 123 157 166 162 177 187 176 178 177 166 171 175 172 170
323 323 318 295 279 275 266 254 234 208 193 208 232 218 220 233 229 235 247 247 255 261 270 275 247 193 181 187 201 204 196 199 213 216 194 174 181 196 197 202 215 221 221 212 209 209 215 244 208 198 194 180 186 212 219 204 209 201 145 175 210 220 153 146 212 202 177 232 246 231 251 280 213 299 88 130 147 162 170 167 164 169 165 160 170 179 179 173
326 324 309 275 269 261 246 231 196 182 186 202 217 231 222 228 241 246 258 264 269 280 293 296 281 229 179 176 203 203 189 190 201 206 201 180 180 192 199 202 207 219 230 218 223 224 199 243 212 174 189 208 189 204 227 227 219 183 166 180 188 248 237 140 149 222 179 218 228 214 230 203 145 260 173 136 147 161 150 141 157 164 163 166 173 178 179 171
319 310 282 273 271 248 220 198 170 167 179 208 225 246 235 232 243 247 257 274 284 289 292 289 301 308 227 185 190 196 187 179 189 203 202 183 179 186 194 206 199 208 232 226 221 251 212 231 227 180 187 203 183 195 229 238 241 204 172 170 159 209 239 172 132 206 186 209 260 252 241 215 181 209 175 146 148 145 130 129 146 155 159 164 168 171 170 159
307 293 273 281 288 218 189 176 159 161 189 203 224 236 234 240 246 252 265 281 288 289 287 281 285 284 265 228 192 192 186 181 190 201 202 187 179 185 189 202 196 197 222 230 219 247 241 248 254 192 182 181 177 189 208 233 251 231 175 172 167 183 200 185 187 178 163 171 207 282 284 280 264 216 165 155 148 135 127 127 143 153 155 154 160 166 160 151
303 274 270 284 280 158 162 163 157 179 198 208 229 230 235 245 247 255 264 271 278 281 281 284 286 281 282 282 250 214 187 185 195 200 197 183 177 187 186 192 203 196 209 225 223 228 230 229 262 206 179 174 181 191 190 198 218 221 202 188 186 197 185 183 208 191 157 149 150 224 304 292 286 266 140 141 138 133 131 129 139 150 151 156 161 163 162 159
302 275 279 305 145 145 149 161 181 193 212 226 236 237 243 248 252 256 256 258 262 256 259 269 274 275 278 280 269 241 196 186 195 200 194 180 181 196 189 191 206 202 203 218 222 219 218 207 224 202 180 188 188 178 186 199 200 200 209 194 185 196 172 159 235 224 152 136 156 152 174 279 294 13 97 111 114 114 118 124 130 132 138 151 156 157 164 167
281 252 284 334 112 145 147 179 205 198 230 232 236 244 248 251 255 260 261 264 265 256 248 250 256 260 260 271 290 295 280 210 201 200 190 187 191 196 193 191 199 207 208 211 211 216 227 217 215 208 190 200 193 178 183 201 210 206 214 211 194 212 188 157 206 233 179 163 175 131 111 273 290 41 92 99 105 107 106 113 125 130 134 146 154 155 165 173
274 281 285 301 290 194 170 199 211 216 233 238 247 249 249 251 253 256 259 262 264 261 251 245 256 260 258 272 286 291 304 310 255 228 205 200 195 189 194 193 194 205 211 204 198 207 224 221 211 239 203 196 199 186 182 191 203 209 214 204 195 225 233 190 166 179 184 189 179 108 96 244 281 337 103 108 112 114 106 97 106 121 131 139 144 148 165 178
291 290 285 294 290 257 225 226 225 224 234 242 246 248 250 250 250 252 256 259 258 261 259 252 258 256 245 247 256 272 305 309 292 279 238 226 203 188 193 195 195 202 201 188 181 188 213 212 182 177 298 191 196 195 185 190 194 197 212 209 203 210 214 221 211 135 185 197 163 122 126 223 255 154 116 109 96 105 116 114 114 126 135 135 133 137 158 172
295 266 258 284 287 268 238 240 250 250 251 248 244 246 250 250 249 247 251 259 260 263 267 264 273 279 264 248 251 272 287 261 280 301 278 262 227 194 194 195 194 202 202 188 176 172 194 200 171 171 184 181 191 202 192 185 187 192 216 235 242 224 206 208 192 113 208 222 167 130 150 222 240 161 134 130 114 119 142 141 131 136 139 136 139 143 151 158
318 286 281 292 292 278 243 245 252 254 264 266 259 252 246 244 247 244 245 253 257 261 263 263 277 295 290 275 266 265 262 249 255 275 288 295 269 231 221 203 191 194 206 199 186 170 176 191 178 172 182 188 199 213 182 160 167 189 202 225 250 254 228 186 157 168 186 193 195 165 154 173 212 189 165 160 145 145 158 149 140 144 140 140 148 153 157 157
292 291 331 341 326 314 287 256 249 251 261 264 268 273 263 256 250 239 235 240 247 250 255 265 281 285 286 287 285 274 268 262 252 259 288 339 325 332 328 278 205 191 202 206 194 179 157 182 177 165 180 194 205 239 221 170 179 191 190 207 231 247 248 208 181 199 169 144 216 200 158 160 192 193 178 174 159 154 160 153 153 164 162 155 150 150 161 162
295 301 349 0 334 308 323 308 291 289 284 272 258 263 268 266 261 251 239 247 252 241 231 284 285 270 271 277 284 288 283 275 259 260 327 9 354 354 341 322 291 202 199 198 186 178 144 158 179 174 190 208 220 243 247 207 206 216 209 206 209 223 240 233 205 185 157 154 204 198 171 167 183 186 179 178 170 162 165 158 152 158 160 161 158 155 164 166
338 315 342 359 328 291 296 294 290 293 293 287 271 255 259 261 262 262 257 263 265 238 191 238 257 258 264 267 274 286 297 297 280 260 29 18 9 12 344 324 335 291 207 188 171 167 139 155 197 188 192 218 240 251 254 250 246 272 287 255 213 212 227 231 226 202 182 180 174 177 182 180 181 185 183 180 172 159 155 149 142 142 144 154 163 165 171 175
358 326 331 333 303 288 288 290 296 298 295 294 287 265 259 255 256 261 259 272 290 284 253 252 251 252 259 261 267 286 332 353 340 326 27 40 35 23 360 300 329 328 288 221 183 157 163 202 211 184 150 245 257 252 247 250 259 274 280 277 256 240 235 232 235 224 220 220 163 163 183 199 193 183 171 164 154 139 137 142 146 147 139 140 151 166 179 186
333 324 330 317 295 302 306 305 303 295 293 298 287 277 272 264 269 274 266 282 307 300 291 277 259 247 252 258 267 310 356 4 350 338 360 29 30 18 348 299 308 321 313 285 203 147 161 205 185 143 95 309 278 262 237 228 245 262 260 261 258 253 248 245 250 235 226 216 161 156 176 209 204 167 138 137 137 131 136 138 133 126 122 127 144 173 195 196
330 328 332 314 292 303 307 306 301 292 301 318 312 310 308 301 309 316 311 333 317 301 303 299 279 259 264 276 278 331 355 355 344 334 333 328 318 317 316 306 304 305 302 300 321 139 153 154 128 129 133 208 271 281 256 219 224 241 247 259 263 269 318 340 332 309 263 209 155 157 171 169 153 128 114 117 117 112 117 121 112 102 99 102 114 138 187 182